CFG2005 OMDB-EDDF

Flight info

Callsign CFG2005
Flight time 7h 26m
Altitude 32000
Route SENPA2F SENPA N571 ALPOB L768 ULADA Q143 MEDGO N697 LOSEL/N0462F340 N697 HIL A788 HLF L604 WEJ L677 CVO L617 NOZ L551 ANTAR DCT AKINA/N0451F360 DCT RIGRO DCT PEREN UL863 EVIVI DCT OKANA DCT TONDO DCT ARSIN DCT BUDEX DCT IPDUL DCT RAPET T170 VAGAB/N0412F240 T170 GAPLA T178 KERAX KERAX4A
Aircraft A21N/M-SDE2E3FGHIRWXY/LB1

Departure

Time 2026-04-14 02:25
Airport Dubai International Airport (OMDB)

Arrival

Time 2026-04-14 09:51
Airport Frankfurt Main Airport (EDDF)
Time Latitude Longitude Altitude Speed Heading
2026-04-14 02:03 25.25684 55.37406 28 ft 0 kts 304°
2026-04-14 02:11 25.25683 55.37408 28 ft 0 kts 304°
2026-04-14 02:12 25.25678 55.37416 28 ft 2 kts 297°
2026-04-14 02:12 25.25671 55.37432 28 ft 2 kts 285°
2026-04-14 02:13 25.25670 55.37450 28 ft 2 kts 251°
2026-04-14 02:13 25.25678 55.37465 28 ft 2 kts 220°
2026-04-14 02:13 25.25686 55.37471 28 ft 1 kts 214°
2026-04-14 02:13 25.25687 55.37472 28 ft 0 kts 213°
2026-04-14 02:17 25.25686 55.37472 28 ft 1 kts 213°
2026-04-14 02:17 25.25656 55.37449 27 ft 10 kts 213°
2026-04-14 02:17 25.25587 55.37405 28 ft 15 kts 211°
2026-04-14 02:17 25.25499 55.37355 29 ft 5 kts 177°
2026-04-14 02:18 25.25461 55.37386 30 ft 7 kts 125°
2026-04-14 02:18 25.25425 55.37454 30 ft 14 kts 121°
2026-04-14 02:18 25.25359 55.37569 31 ft 21 kts 123°
2026-04-14 02:18 25.25269 55.37732 32 ft 28 kts 121°
2026-04-14 02:19 25.25157 55.37939 33 ft 35 kts 122°
2026-04-14 02:19 25.25040 55.38146 34 ft 27 kts 121°
2026-04-14 02:19 25.24991 55.38276 35 ft 8 kts 67°
2026-04-14 02:19 25.25020 55.38348 35 ft 14 kts 88°
2026-04-14 02:20 25.24968 55.38447 36 ft 17 kts 135°
2026-04-14 02:20 25.24864 55.38491 36 ft 18 kts 166°
2026-04-14 02:20 25.24724 55.38524 41 ft 22 kts 165°
2026-04-14 02:20 25.24562 55.38568 48 ft 26 kts 168°
2026-04-14 02:21 25.24370 55.38617 53 ft 30 kts 167°
2026-04-14 02:21 25.24204 55.38745 57 ft 31 kts 120°
2026-04-14 02:21 25.24083 55.38966 54 ft 36 kts 121°
2026-04-14 02:21 25.23943 55.39218 61 ft 41 kts 122°
2026-04-14 02:22 25.23798 55.39479 61 ft 31 kts 129°
2026-04-14 02:22 25.23771 55.39499 70 ft 0 kts 163°
2026-04-14 02:22 25.23768 55.39499 65 ft 2 kts 165°
2026-04-14 02:22 25.23754 55.39500 72 ft 0 kts 180°
2026-04-14 02:23 25.23719 55.39482 70 ft 16 kts 209°
2026-04-14 02:23 25.23644 55.39382 67 ft 10 kts 288°
2026-04-14 02:23 25.23671 55.39332 68 ft 6 kts 301°
2026-04-14 02:24 25.23698 55.39283 66 ft 16 kts 301°
2026-04-14 02:24 25.23874 55.38963 58 ft 81 kts 301°
2026-04-14 02:24 25.24278 55.38234 51 ft 139 kts 302°
2026-04-14 02:24 25.24877 55.37165 112 ft 185 kts 303°
2026-04-14 02:25 25.25599 55.35921 684 ft 197 kts 301°
2026-04-14 02:25 25.26350 55.34645 1494 ft 198 kts 303°
2026-04-14 02:25 25.27123 55.33393 2316 ft 200 kts 304°
2026-04-14 02:25 25.27945 55.32041 2585 ft 226 kts 304°
2026-04-14 02:26 25.28777 55.30502 3130 ft 241 kts 296°
2026-04-14 02:26 25.29371 55.28723 3866 ft 248 kts 287°
2026-04-14 02:26 25.29643 55.27486 4415 ft 251 kts 283°
2026-04-14 02:26 25.29985 55.24910 5449 ft 259 kts 278°
2026-04-14 02:27 25.30151 55.22914 6247 ft 262 kts 276°
2026-04-14 02:27 25.30261 55.20892 6999 ft 265 kts 273°
2026-04-14 02:27 25.30266 55.18841 7796 ft 266 kts 270°
2026-04-14 02:27 25.30231 55.17484 8346 ft 266 kts 269°
2026-04-14 02:28 25.30141 55.15438 9151 ft 267 kts 268°
2026-04-14 02:28 25.30020 55.13390 9944 ft 267 kts 267°
2026-04-14 02:28 25.29880 55.11304 10452 ft 279 kts 266°
2026-04-14 02:28 25.29716 55.09077 10663 ft 301 kts 266°
2026-04-14 02:29 25.29535 55.06733 10952 ft 319 kts 266°
2026-04-14 02:29 25.29336 55.04215 11301 ft 336 kts 266°
2026-04-14 02:29 25.29127 55.01573 11691 ft 351 kts 265°
2026-04-14 02:29 25.28915 54.98844 12283 ft 359 kts 266°
2026-04-14 02:30 25.28734 54.96074 13026 ft 363 kts 266°
2026-04-14 02:30 25.28588 54.93306 13738 ft 367 kts 267°
2026-04-14 02:30 25.28468 54.90470 14391 ft 371 kts 268°
2026-04-14 02:30 25.28368 54.87601 15045 ft 374 kts 268°
2026-04-14 02:31 25.28279 54.84712 15699 ft 377 kts 268°
2026-04-14 02:31 25.28198 54.81801 16336 ft 381 kts 268°
2026-04-14 02:31 25.28133 54.78864 16954 ft 385 kts 271°
2026-04-14 02:31 25.28373 54.75909 17572 ft 388 kts 278°
2026-04-14 02:32 25.28831 54.72953 18190 ft 392 kts 280°
2026-04-14 02:32 25.29401 54.69982 18745 ft 396 kts 282°
2026-04-14 02:32 25.30039 54.67016 19286 ft 398 kts 283°
2026-04-14 02:32 25.30728 54.64033 19817 ft 401 kts 283°
2026-04-14 02:33 25.31441 54.61077 20350 ft 404 kts 284°
2026-04-14 02:33 25.32189 54.58065 20882 ft 407 kts 284°
2026-04-14 02:33 25.32968 54.55040 21400 ft 410 kts 284°
2026-04-14 02:34 25.34583 54.48974 22416 ft 416 kts 285°
2026-04-14 02:34 25.35366 54.46070 22887 ft 419 kts 285°
2026-04-14 02:34 25.36204 54.42971 23397 ft 422 kts 285°
2026-04-14 02:34 25.37048 54.39852 23844 ft 424 kts 285°
2026-04-14 02:35 25.37899 54.36707 24284 ft 426 kts 284°
2026-04-14 02:35 25.38461 54.34625 24563 ft 428 kts 284°
2026-04-14 02:35 25.39076 54.32341 24873 ft 429 kts 284°
2026-04-14 02:36 25.39916 54.29161 25305 ft 431 kts 284°
2026-04-14 02:36 25.40744 54.25949 25732 ft 433 kts 283°
2026-04-14 02:36 25.41561 54.22731 26152 ft 435 kts 283°
2026-04-14 02:36 25.42366 54.19520 26580 ft 437 kts 283°
2026-04-14 02:37 25.43172 54.16279 27150 ft 435 kts 283°
2026-04-14 02:37 25.43971 54.13053 27741 ft 432 kts 283°
2026-04-14 02:37 25.44748 54.09887 28315 ft 430 kts 282°
2026-04-14 02:37 25.45526 54.06695 28896 ft 428 kts 282°
2026-04-14 02:38 25.46298 54.03517 29462 ft 426 kts 282°
2026-04-14 02:38 25.47067 54.00339 30017 ft 424 kts 282°
2026-04-14 02:38 25.47816 53.97237 30672 ft 416 kts 282°
2026-04-14 02:38 25.48560 53.94160 31250 ft 412 kts 281°
2026-04-14 02:39 25.49301 53.91079 31514 ft 414 kts 281°
2026-04-14 02:39 25.50039 53.87991 31787 ft 414 kts 281°
2026-04-14 02:39 25.50771 53.84926 31926 ft 409 kts 281°
2026-04-14 02:40 25.52222 53.78805 32026 ft 415 kts 281°
2026-04-14 02:40 25.53691 53.72640 32039 ft 416 kts 281°
2026-04-14 02:41 25.55171 53.66457 32051 ft 414 kts 281°
2026-04-14 02:41 25.56649 53.60272 32051 ft 416 kts 281°
2026-04-14 02:42 25.58129 53.54053 32053 ft 417 kts 281°
2026-04-14 02:42 25.59604 53.47846 32053 ft 416 kts 281°
2026-04-14 02:43 25.61068 53.41673 32055 ft 417 kts 281°
2026-04-14 02:43 25.62544 53.35433 32057 ft 418 kts 281°
2026-04-14 02:44 25.64010 53.29225 32055 ft 418 kts 281°
2026-04-14 02:44 25.65479 53.22989 32057 ft 418 kts 281°
2026-04-14 02:45 25.66948 53.16730 32060 ft 420 kts 281°
2026-04-14 02:45 25.68416 53.10465 32059 ft 419 kts 281°
2026-04-14 02:46 25.69970 53.04257 32066 ft 421 kts 287°
2026-04-14 02:46 25.72340 52.98268 32065 ft 425 kts 291°
2026-04-14 02:47 25.74953 52.92405 32065 ft 426 kts 292°
2026-04-14 02:47 25.77653 52.86552 32066 ft 425 kts 292°
2026-04-14 02:48 25.80380 52.80713 32067 ft 426 kts 292°
2026-04-14 02:48 25.83102 52.74909 32062 ft 426 kts 292°
2026-04-14 02:49 25.85839 52.69078 32069 ft 425 kts 292°
2026-04-14 02:49 25.88563 52.63255 32071 ft 424 kts 292°
2026-04-14 02:50 25.91204 52.57435 32068 ft 424 kts 291°
2026-04-14 02:50 25.93820 52.51557 32071 ft 423 kts 291°
2026-04-14 02:51 25.96408 52.45684 32071 ft 422 kts 291°
2026-04-14 02:51 25.98998 52.39819 32073 ft 423 kts 291°
2026-04-14 02:52 26.01604 52.33972 32071 ft 423 kts 291°
2026-04-14 02:52 26.04224 52.28106 32071 ft 422 kts 291°
2026-04-14 02:53 26.06817 52.22293 32075 ft 422 kts 291°
2026-04-14 02:53 26.09421 52.16439 32077 ft 423 kts 291°
2026-04-14 02:54 26.12032 52.10559 32078 ft 422 kts 290°
2026-04-14 02:54 26.14628 52.04700 32082 ft 421 kts 290°
2026-04-14 02:55 26.17214 51.98874 32081 ft 422 kts 291°
2026-04-14 02:55 26.19833 51.93004 32082 ft 423 kts 291°
2026-04-14 02:56 26.22440 51.87133 32085 ft 421 kts 290°
2026-04-14 02:56 26.25017 51.81311 32086 ft 421 kts 290°
2026-04-14 02:57 26.27622 51.75451 32087 ft 422 kts 290°
2026-04-14 02:57 26.30227 51.69596 32085 ft 420 kts 290°
2026-04-14 02:58 26.32828 51.63758 32087 ft 420 kts 290°
2026-04-14 02:58 26.35419 51.57941 32085 ft 422 kts 290°
2026-04-14 02:59 26.37827 51.52005 32090 ft 418 kts 287°
2026-04-14 02:59 26.39917 51.45979 32084 ft 415 kts 285°
2026-04-14 03:00 26.41887 51.39896 32091 ft 416 kts 284°
2026-04-14 03:00 26.43807 51.33856 32076 ft 415 kts 284°
2026-04-14 03:01 26.45737 51.27782 32076 ft 414 kts 284°
2026-04-14 03:01 26.47671 51.21713 32093 ft 415 kts 284°
2026-04-14 03:02 26.49609 51.15634 32090 ft 415 kts 284°
2026-04-14 03:02 26.51530 51.09599 32092 ft 414 kts 284°
2026-04-14 03:03 26.53457 51.03532 32091 ft 414 kts 284°
2026-04-14 03:03 26.55368 50.97497 32084 ft 414 kts 284°
2026-04-14 03:04 26.57282 50.91419 32084 ft 414 kts 284°
2026-04-14 03:04 26.59180 50.85343 32083 ft 412 kts 284°
2026-04-14 03:05 26.61048 50.79324 32099 ft 413 kts 283°
2026-04-14 03:05 26.62928 50.73236 32095 ft 414 kts 283°
2026-04-14 03:06 26.64778 50.67147 32099 ft 412 kts 283°
2026-04-14 03:06 26.66589 50.61090 32097 ft 412 kts 283°
2026-04-14 03:07 26.68400 50.54980 32100 ft 413 kts 283°
2026-04-14 03:07 26.70146 50.48893 32099 ft 411 kts 281°
2026-04-14 03:08 26.71783 50.42771 32104 ft 410 kts 281°
2026-04-14 03:08 26.73373 50.36638 32108 ft 410 kts 280°
2026-04-14 03:09 26.74869 50.30527 32111 ft 406 kts 275°
2026-04-14 03:09 26.75471 50.24290 32112 ft 401 kts 269°
2026-04-14 03:10 26.75730 50.18043 32111 ft 401 kts 268°
2026-04-14 03:10 26.75869 50.11840 32110 ft 399 kts 267°
2026-04-14 03:11 26.75956 50.05637 32108 ft 398 kts 266°
2026-04-14 03:11 26.76018 49.99463 32108 ft 399 kts 266°
2026-04-14 03:12 26.76069 49.93254 32107 ft 399 kts 266°
2026-04-14 03:12 26.76116 49.87041 32107 ft 398 kts 266°
2026-04-14 03:13 26.76161 49.80878 32102 ft 398 kts 266°
2026-04-14 03:13 26.76203 49.74651 32102 ft 399 kts 266°
2026-04-14 03:14 26.76244 49.68460 32102 ft 400 kts 266°
2026-04-14 03:14 26.76285 49.62240 32098 ft 399 kts 266°
2026-04-14 03:15 26.76315 49.57058 32102 ft 400 kts 266°
2026-04-14 03:15 26.76350 49.50825 32102 ft 401 kts 265°
2026-04-14 03:16 26.76384 49.44570 32107 ft 401 kts 265°
2026-04-14 03:16 26.76414 49.38355 32109 ft 401 kts 265°
2026-04-14 03:17 26.76440 49.32122 32119 ft 403 kts 265°
2026-04-14 03:17 26.76474 49.22688 32123 ft 403 kts 265°
2026-04-14 03:18 26.76494 49.16450 32128 ft 403 kts 265°
2026-04-14 03:18 26.76510 49.10135 32130 ft 405 kts 265°
2026-04-14 03:19 26.76525 49.03831 32128 ft 405 kts 265°
2026-04-14 03:19 26.76537 48.97579 32130 ft 404 kts 265°
2026-04-14 03:20 26.76546 48.91278 32136 ft 405 kts 265°
2026-04-14 03:20 26.76551 48.84954 32140 ft 405 kts 265°
2026-04-14 03:21 26.76555 48.78685 32145 ft 404 kts 265°
2026-04-14 03:21 26.76538 48.72395 32146 ft 404 kts 264°
2026-04-14 03:22 26.76429 48.66096 32151 ft 404 kts 264°
2026-04-14 03:22 26.76281 48.59806 32151 ft 404 kts 264°
2026-04-14 03:23 26.76118 48.53526 32153 ft 403 kts 263°
2026-04-14 03:23 26.75950 48.47283 32156 ft 404 kts 263°
2026-04-14 03:24 26.75777 48.40989 32158 ft 404 kts 263°
2026-04-14 03:24 26.75604 48.34704 32161 ft 403 kts 263°
2026-04-14 03:25 26.75429 48.28436 32168 ft 404 kts 263°
2026-04-14 03:25 26.75250 48.22172 32169 ft 406 kts 263°
2026-04-14 03:26 26.75071 48.15860 32170 ft 405 kts 263°
2026-04-14 03:26 26.74889 48.09568 32168 ft 405 kts 263°
2026-04-14 03:27 26.74702 48.03272 32183 ft 407 kts 263°
2026-04-14 03:27 26.74513 47.96936 32183 ft 407 kts 263°
2026-04-14 03:28 26.74376 47.90609 32186 ft 408 kts 265°
2026-04-14 03:28 26.74537 47.84235 32178 ft 411 kts 267°
2026-04-14 03:29 26.74805 47.77866 32180 ft 411 kts 268°
2026-04-14 03:29 26.75108 47.71473 32178 ft 411 kts 268°
2026-04-14 03:30 26.75421 47.65064 32178 ft 412 kts 268°
2026-04-14 03:30 26.75733 47.58658 32183 ft 412 kts 268°
2026-04-14 03:31 26.76044 47.52297 32176 ft 411 kts 268°
2026-04-14 03:31 26.76354 47.45885 32181 ft 412 kts 268°
2026-04-14 03:32 26.76768 47.39465 32184 ft 415 kts 272°
2026-04-14 03:32 26.77575 47.33109 32183 ft 415 kts 274°
2026-04-14 03:33 26.78499 47.26722 32179 ft 415 kts 274°
2026-04-14 03:33 26.79456 47.20330 32182 ft 416 kts 275°
2026-04-14 03:34 26.80904 47.10781 32176 ft 415 kts 275°
2026-04-14 03:35 26.81876 47.04389 32177 ft 417 kts 275°
2026-04-14 03:35 26.82849 46.97978 32177 ft 418 kts 275°
2026-04-14 03:36 26.83823 46.91564 32181 ft 417 kts 275°
2026-04-14 03:36 26.84791 46.85162 32175 ft 418 kts 275°
2026-04-14 03:37 26.85755 46.78766 32176 ft 419 kts 275°
2026-04-14 03:37 26.86724 46.72330 32171 ft 418 kts 275°
2026-04-14 03:38 26.87688 46.65903 32172 ft 418 kts 274°
2026-04-14 03:38 26.88651 46.59460 32172 ft 419 kts 274°
2026-04-14 03:39 26.89606 46.53049 32171 ft 419 kts 274°
2026-04-14 03:39 26.90560 46.46616 32172 ft 418 kts 274°
2026-04-14 03:40 26.91510 46.40193 32172 ft 418 kts 274°
2026-04-14 03:40 26.92465 46.33757 32169 ft 418 kts 274°
2026-04-14 03:41 26.93411 46.27370 32171 ft 417 kts 274°
2026-04-14 03:41 26.94357 46.20959 32169 ft 416 kts 274°
2026-04-14 03:42 26.95302 46.14536 32167 ft 417 kts 274°
2026-04-14 03:42 26.96238 46.08141 32168 ft 417 kts 274°
2026-04-14 03:43 26.97176 46.01715 32168 ft 416 kts 274°
2026-04-14 03:43 26.98101 45.95351 32165 ft 416 kts 274°
2026-04-14 03:44 26.99036 45.88897 32166 ft 417 kts 274°
2026-04-14 03:44 26.99960 45.82508 32159 ft 416 kts 274°
2026-04-14 03:45 27.00883 45.76103 32161 ft 416 kts 274°
2026-04-14 03:45 27.01804 45.69680 32160 ft 417 kts 274°
2026-04-14 03:46 27.02718 45.63299 32156 ft 416 kts 274°
2026-04-14 03:46 27.03634 45.56891 32158 ft 416 kts 274°
2026-04-14 03:47 27.04551 45.50476 32158 ft 417 kts 274°
2026-04-14 03:47 27.05404 45.44035 32157 ft 416 kts 273°
2026-04-14 03:48 27.06160 45.37637 32155 ft 415 kts 273°
2026-04-14 03:48 27.06890 45.31205 32158 ft 415 kts 272°
2026-04-14 03:49 27.07608 45.24782 32152 ft 416 kts 272°
2026-04-14 03:49 27.08324 45.18332 32153 ft 416 kts 272°
2026-04-14 03:50 27.09032 45.11923 32152 ft 417 kts 272°
2026-04-14 03:50 27.09743 45.05448 32153 ft 418 kts 272°
2026-04-14 03:51 27.10453 44.98964 32147 ft 418 kts 272°
2026-04-14 03:51 27.11157 44.92512 32147 ft 418 kts 272°
2026-04-14 03:52 27.11861 44.86022 32143 ft 418 kts 272°
2026-04-14 03:52 27.12562 44.79529 32143 ft 418 kts 272°
2026-04-14 03:53 27.13257 44.73073 32148 ft 418 kts 272°
2026-04-14 03:53 27.13953 44.66590 32146 ft 418 kts 272°
2026-04-14 03:54 27.14647 44.60097 32141 ft 419 kts 272°
2026-04-14 03:54 27.15340 44.53586 32144 ft 419 kts 272°
2026-04-14 03:55 27.16029 44.47079 32145 ft 419 kts 272°
2026-04-14 03:55 27.16711 44.40615 32143 ft 420 kts 272°
2026-04-14 03:56 27.17393 44.34085 32150 ft 421 kts 272°
2026-04-14 03:56 27.18071 44.27547 32144 ft 420 kts 272°
2026-04-14 03:57 27.18741 44.21057 32145 ft 420 kts 272°
2026-04-14 03:57 27.19415 44.14497 32146 ft 422 kts 272°
2026-04-14 03:58 27.20085 44.07943 32148 ft 422 kts 272°
2026-04-14 03:58 27.20748 44.01436 32146 ft 421 kts 273°
2026-04-14 03:59 27.21410 43.94886 32149 ft 422 kts 273°
2026-04-14 03:59 27.22072 43.88327 32145 ft 423 kts 273°
2026-04-14 04:00 27.22732 43.81747 32149 ft 422 kts 273°
2026-04-14 04:00 27.23385 43.75225 32147 ft 423 kts 273°
2026-04-14 04:01 27.24041 43.68632 32153 ft 424 kts 273°
2026-04-14 04:01 27.24695 43.62038 32154 ft 423 kts 273°
2026-04-14 04:02 27.25341 43.55501 32155 ft 423 kts 273°
2026-04-14 04:02 27.25989 43.48907 32158 ft 425 kts 273°
2026-04-14 04:03 27.26526 43.43415 32155 ft 425 kts 273°
2026-04-14 04:03 27.27169 43.36816 32163 ft 424 kts 273°
2026-04-14 04:04 27.27809 43.30203 32159 ft 426 kts 273°
2026-04-14 04:04 27.28449 43.23568 32167 ft 426 kts 273°
2026-04-14 04:05 27.29081 43.16988 32177 ft 425 kts 273°
2026-04-14 04:05 27.29713 43.10359 32177 ft 427 kts 273°
2026-04-14 04:06 27.30344 43.03712 32174 ft 427 kts 273°
2026-04-14 04:06 27.30970 42.97082 32177 ft 426 kts 273°
2026-04-14 04:07 27.31594 42.90441 32181 ft 427 kts 273°
2026-04-14 04:07 27.32213 42.83818 32186 ft 428 kts 273°
2026-04-14 04:08 27.32832 42.77168 32190 ft 427 kts 273°
2026-04-14 04:08 27.33449 42.70500 32188 ft 427 kts 273°
2026-04-14 04:09 27.34059 42.63882 32199 ft 429 kts 273°
2026-04-14 04:09 27.34671 42.57199 32197 ft 428 kts 273°
2026-04-14 04:10 27.35280 42.50532 32199 ft 427 kts 273°
2026-04-14 04:10 27.35881 42.43903 32201 ft 429 kts 273°
2026-04-14 04:11 27.36484 42.37205 32209 ft 429 kts 273°
2026-04-14 04:11 27.37081 42.30531 32210 ft 428 kts 274°
2026-04-14 04:12 27.37671 42.23906 32211 ft 429 kts 274°
2026-04-14 04:12 27.38263 42.17216 32213 ft 429 kts 274°
2026-04-14 04:13 27.38852 42.10537 32220 ft 428 kts 274°
2026-04-14 04:13 27.39438 42.03851 32229 ft 428 kts 274°
2026-04-14 04:14 27.40020 41.97176 32239 ft 429 kts 274°
2026-04-14 04:14 27.40596 41.90529 32251 ft 428 kts 274°
2026-04-14 04:15 27.41172 41.83860 32260 ft 428 kts 274°
2026-04-14 04:15 27.41745 41.77186 32267 ft 428 kts 274°
2026-04-14 04:16 27.42085 41.70536 32283 ft 425 kts 260°
2026-04-14 04:16 27.40352 41.64151 32272 ft 427 kts 249°
2026-04-14 04:17 27.38126 41.57987 32264 ft 426 kts 247°
2026-04-14 04:17 27.35776 41.51852 32245 ft 426 kts 247°
2026-04-14 04:18 27.33398 41.45782 32236 ft 427 kts 246°
2026-04-14 04:18 27.30969 41.39657 32227 ft 427 kts 246°
2026-04-14 04:19 27.28558 41.33610 32213 ft 426 kts 246°
2026-04-14 04:19 27.26121 41.27522 32211 ft 428 kts 246°
2026-04-14 04:20 27.23672 41.21420 32206 ft 428 kts 246°
2026-04-14 04:20 27.21222 41.15330 32209 ft 427 kts 246°
2026-04-14 04:21 27.18773 41.09249 32200 ft 428 kts 246°
2026-04-14 04:21 27.16318 41.03154 32202 ft 428 kts 246°
2026-04-14 04:22 27.13849 40.97069 32197 ft 427 kts 246°
2026-04-14 04:22 27.11389 40.91030 32161 ft 428 kts 246°
2026-04-14 04:23 27.08918 40.84941 32192 ft 430 kts 246°
2026-04-14 04:23 27.06427 40.78829 32188 ft 430 kts 246°
2026-04-14 04:24 27.03940 40.72739 32191 ft 429 kts 246°
2026-04-14 04:24 27.01449 40.66648 32188 ft 430 kts 246°
2026-04-14 04:25 26.98971 40.60591 32189 ft 431 kts 246°
2026-04-14 04:25 26.96464 40.54469 32189 ft 430 kts 246°
2026-04-14 04:26 26.93979 40.48410 32190 ft 429 kts 246°
2026-04-14 04:26 26.91474 40.42311 32189 ft 431 kts 246°
2026-04-14 04:27 26.88969 40.36219 32187 ft 430 kts 246°
2026-04-14 04:27 26.86460 40.30129 32188 ft 430 kts 246°
2026-04-14 04:28 26.83943 40.24027 32188 ft 431 kts 246°
2026-04-14 04:28 26.81440 40.17965 32186 ft 431 kts 246°
2026-04-14 04:29 26.78923 40.11879 32186 ft 430 kts 246°
2026-04-14 04:29 26.76401 40.05790 32183 ft 431 kts 246°
2026-04-14 04:30 26.73880 39.99714 32183 ft 432 kts 246°
2026-04-14 04:30 26.71344 39.93612 32183 ft 431 kts 246°
2026-04-14 04:31 26.68809 39.87519 32184 ft 431 kts 246°
2026-04-14 04:31 26.65016 39.78419 32176 ft 432 kts 246°
2026-04-14 04:32 26.62475 39.72336 32170 ft 431 kts 246°
2026-04-14 04:32 26.59929 39.66246 32176 ft 432 kts 246°
2026-04-14 04:33 26.57375 39.60147 32166 ft 433 kts 246°
2026-04-14 04:33 26.54817 39.54047 32160 ft 433 kts 246°
2026-04-14 04:34 26.52263 39.47969 32161 ft 433 kts 246°
2026-04-14 04:34 26.49720 39.41916 32157 ft 434 kts 246°
2026-04-14 04:35 26.47151 39.35811 32152 ft 433 kts 246°
2026-04-14 04:35 26.44664 39.29674 32162 ft 431 kts 255°
2026-04-14 04:36 26.43534 39.23134 32154 ft 434 kts 262°
2026-04-14 04:36 26.42790 39.16455 32149 ft 432 kts 264°
2026-04-14 04:37 26.42146 39.09791 32151 ft 431 kts 264°
2026-04-14 04:37 26.41539 39.03108 32150 ft 433 kts 264°
2026-04-14 04:38 26.40953 38.96469 32151 ft 432 kts 265°
2026-04-14 04:38 26.40372 38.89780 32145 ft 432 kts 265°
2026-04-14 04:39 26.39798 38.83125 32145 ft 433 kts 265°
2026-04-14 04:39 26.39221 38.76428 32142 ft 432 kts 265°
2026-04-14 04:40 26.38646 38.69764 32139 ft 432 kts 265°
2026-04-14 04:41 26.37778 38.59740 32130 ft 433 kts 265°
2026-04-14 04:41 26.37199 38.53081 32126 ft 432 kts 265°
2026-04-14 04:42 26.36615 38.46407 32121 ft 432 kts 265°
2026-04-14 04:42 26.36029 38.39760 32122 ft 433 kts 265°
2026-04-14 04:43 26.35439 38.33077 32115 ft 433 kts 265°
2026-04-14 04:43 26.34845 38.26397 32122 ft 432 kts 265°
2026-04-14 04:44 26.34249 38.19714 32121 ft 433 kts 265°
2026-04-14 04:44 26.33653 38.13064 32122 ft 433 kts 265°
2026-04-14 04:45 26.33051 38.06382 32122 ft 433 kts 265°
2026-04-14 04:45 26.32446 37.99705 32120 ft 432 kts 265°
2026-04-14 04:46 26.31837 37.93031 32111 ft 433 kts 265°
2026-04-14 04:46 26.31223 37.86347 32106 ft 433 kts 265°
2026-04-14 04:47 26.30611 37.79718 32099 ft 432 kts 265°
2026-04-14 04:47 26.29993 37.73033 32099 ft 432 kts 265°
2026-04-14 04:48 26.29376 37.66387 32091 ft 433 kts 265°
2026-04-14 04:48 26.28752 37.59708 32087 ft 432 kts 265°
2026-04-14 04:49 26.28127 37.53050 32084 ft 433 kts 265°
2026-04-14 04:49 26.27603 37.47500 32076 ft 433 kts 265°
2026-04-14 04:50 26.26869 37.39747 32061 ft 431 kts 265°
2026-04-14 04:50 26.26341 37.34208 32056 ft 432 kts 265°
2026-04-14 04:51 26.25703 37.27540 32051 ft 433 kts 265°
2026-04-14 04:51 26.25062 37.20883 32031 ft 431 kts 265°
2026-04-14 04:52 26.24423 37.14263 32030 ft 432 kts 265°
2026-04-14 04:52 26.23775 37.07600 32021 ft 432 kts 265°
2026-04-14 04:53 26.23125 37.00947 31996 ft 431 kts 265°
2026-04-14 04:53 26.22474 36.94296 32000 ft 432 kts 265°
2026-04-14 04:54 26.21823 36.87683 31988 ft 432 kts 265°
2026-04-14 04:54 26.21163 36.81031 31979 ft 431 kts 265°
2026-04-14 04:55 26.20503 36.74396 31975 ft 431 kts 265°
2026-04-14 04:55 26.19840 36.67750 31971 ft 432 kts 265°
2026-04-14 04:56 26.19176 36.61137 31969 ft 431 kts 265°
2026-04-14 04:56 26.18508 36.54506 31966 ft 430 kts 265°
2026-04-14 04:56 26.18368 36.51183 31980 ft 428 kts 278°
2026-04-14 04:57 26.19107 36.47988 32009 ft 427 kts 296°
2026-04-14 04:57 26.20690 36.45235 32012 ft 431 kts 309°
2026-04-14 04:57 26.22707 36.42747 31982 ft 433 kts 312°
2026-04-14 04:58 26.26923 36.37975 31960 ft 429 kts 313°
2026-04-14 04:58 26.31135 36.33300 31961 ft 429 kts 313°
2026-04-14 04:59 26.35360 36.28573 31965 ft 430 kts 313°
2026-04-14 04:59 26.39554 36.23828 31970 ft 428 kts 313°
2026-04-14 05:00 26.43716 36.19078 31974 ft 428 kts 313°
2026-04-14 05:00 26.47851 36.14325 31978 ft 429 kts 313°
2026-04-14 05:01 26.51997 36.09539 31982 ft 427 kts 313°
2026-04-14 05:01 26.56122 36.04760 31989 ft 427 kts 313°
2026-04-14 05:02 26.60229 35.99990 31987 ft 428 kts 313°
2026-04-14 05:02 26.64357 35.95187 31990 ft 426 kts 313°
2026-04-14 05:03 26.68444 35.90422 31994 ft 426 kts 313°
2026-04-14 05:03 26.72555 35.85621 31998 ft 427 kts 313°
2026-04-14 05:04 26.76637 35.80847 31997 ft 426 kts 313°
2026-04-14 05:04 26.80734 35.76066 32003 ft 425 kts 313°
2026-04-14 05:05 26.84842 35.71272 32005 ft 426 kts 313°
2026-04-14 05:05 26.88949 35.66472 32006 ft 426 kts 313°
2026-04-14 05:06 26.93051 35.61669 32008 ft 425 kts 313°
2026-04-14 05:06 26.97114 35.56904 32008 ft 425 kts 313°
2026-04-14 05:07 27.01194 35.52113 32006 ft 425 kts 313°
2026-04-14 05:07 27.05278 35.47310 32011 ft 424 kts 313°
2026-04-14 05:08 27.09339 35.42529 32013 ft 424 kts 313°
2026-04-14 05:08 27.13420 35.37718 32011 ft 425 kts 313°
2026-04-14 05:09 27.17494 35.32910 32015 ft 424 kts 313°
2026-04-14 05:09 27.21530 35.28141 32018 ft 423 kts 313°
2026-04-14 05:10 27.25594 35.23334 32017 ft 424 kts 313°
2026-04-14 05:10 27.29665 35.18512 32024 ft 424 kts 313°
2026-04-14 05:11 27.33696 35.13732 32024 ft 423 kts 313°
2026-04-14 05:11 27.37746 35.08924 32024 ft 422 kts 313°
2026-04-14 05:12 27.41799 35.04107 32029 ft 423 kts 313°
2026-04-14 05:12 27.45818 34.99322 32030 ft 422 kts 313°
2026-04-14 05:13 27.49872 34.94552 32029 ft 421 kts 314°
2026-04-14 05:13 27.54085 34.89942 32030 ft 422 kts 315°
2026-04-14 05:14 27.58333 34.85411 32029 ft 422 kts 316°
2026-04-14 05:14 27.62604 34.80886 32032 ft 420 kts 316°
2026-04-14 05:15 27.66870 34.76370 32035 ft 421 kts 316°
2026-04-14 05:15 27.71150 34.71837 32036 ft 421 kts 316°
2026-04-14 05:16 27.75385 34.67346 32039 ft 419 kts 316°
2026-04-14 05:16 27.79640 34.62828 32052 ft 420 kts 316°
2026-04-14 05:17 27.83894 34.58307 32058 ft 420 kts 316°
2026-04-14 05:17 27.88120 34.53809 32067 ft 418 kts 316°
2026-04-14 05:18 27.92356 34.49295 32075 ft 418 kts 316°
2026-04-14 05:18 27.96602 34.44761 32076 ft 419 kts 315°
2026-04-14 05:19 28.00548 34.39971 32078 ft 418 kts 310°
2026-04-14 05:19 28.04320 34.34954 32078 ft 417 kts 309°
2026-04-14 05:20 28.08013 34.29927 32073 ft 417 kts 309°
2026-04-14 05:20 28.11702 34.24854 32077 ft 416 kts 309°
2026-04-14 05:21 28.15387 34.19763 32076 ft 417 kts 309°
2026-04-14 05:21 28.19038 34.14706 32080 ft 416 kts 309°
2026-04-14 05:22 28.22706 34.09611 32090 ft 416 kts 309°
2026-04-14 05:22 28.26376 34.04509 32094 ft 417 kts 309°
2026-04-14 05:23 28.30040 33.99408 32099 ft 417 kts 309°
2026-04-14 05:23 28.33675 33.94341 32094 ft 417 kts 309°
2026-04-14 05:24 28.37340 33.89218 32103 ft 417 kts 309°
2026-04-14 05:24 28.40987 33.84116 32100 ft 415 kts 309°
2026-04-14 05:25 28.44622 33.79024 32096 ft 415 kts 309°
2026-04-14 05:25 28.48247 33.73942 32097 ft 416 kts 309°
2026-04-14 05:26 28.51878 33.68843 32096 ft 415 kts 309°
2026-04-14 05:26 28.55521 33.63732 32086 ft 416 kts 309°
2026-04-14 05:27 28.59174 33.58601 32084 ft 416 kts 309°
2026-04-14 05:27 28.62808 33.53489 32086 ft 414 kts 309°
2026-04-14 05:28 28.66437 33.48380 32088 ft 415 kts 309°
2026-04-14 05:28 28.70052 33.43283 32087 ft 415 kts 309°
2026-04-14 05:29 28.73684 33.38155 32092 ft 414 kts 309°
2026-04-14 05:29 28.77300 33.33043 32083 ft 414 kts 309°
2026-04-14 05:30 28.80906 33.27938 32081 ft 416 kts 309°
2026-04-14 05:30 28.84531 33.22798 32083 ft 415 kts 309°
2026-04-14 05:31 28.88144 33.17669 32083 ft 414 kts 309°
2026-04-14 05:31 28.91736 33.12564 32082 ft 415 kts 309°
2026-04-14 05:32 28.95349 33.07423 32083 ft 415 kts 309°
2026-04-14 05:32 28.98958 33.02281 32084 ft 414 kts 309°
2026-04-14 05:33 29.02563 32.97138 32088 ft 415 kts 309°
2026-04-14 05:33 29.06172 32.91984 32087 ft 415 kts 309°
2026-04-14 05:34 29.11552 32.84286 32089 ft 414 kts 308°
2026-04-14 05:34 29.15157 32.79120 32092 ft 415 kts 308°
2026-04-14 05:35 29.18742 32.73974 32094 ft 415 kts 308°
2026-04-14 05:35 29.22321 32.68833 32099 ft 414 kts 308°
2026-04-14 05:36 29.25920 32.63652 32102 ft 414 kts 308°
2026-04-14 05:36 29.29485 32.58497 32104 ft 415 kts 308°
2026-04-14 05:37 29.33060 32.53305 32107 ft 414 kts 308°
2026-04-14 05:37 29.36619 32.48125 32110 ft 413 kts 308°
2026-04-14 05:38 29.40167 32.42952 32116 ft 415 kts 308°
2026-04-14 05:38 29.43743 32.37731 32115 ft 415 kts 308°
2026-04-14 05:39 29.47305 32.32524 32124 ft 414 kts 308°
2026-04-14 05:39 29.50846 32.27337 32119 ft 415 kts 308°
2026-04-14 05:40 29.54409 32.22114 32126 ft 415 kts 308°
2026-04-14 05:40 29.57374 32.17762 32127 ft 415 kts 308°
2026-04-14 05:41 29.60929 32.12536 32126 ft 415 kts 308°
2026-04-14 05:41 29.64471 32.07322 32124 ft 416 kts 308°
2026-04-14 05:42 29.68034 32.02071 32126 ft 416 kts 308°
2026-04-14 05:42 29.71590 31.96822 32129 ft 415 kts 307°
2026-04-14 05:43 29.75114 31.91611 32125 ft 415 kts 307°
2026-04-14 05:43 29.78634 31.86319 32131 ft 416 kts 307°
2026-04-14 05:44 29.82104 31.80979 32126 ft 415 kts 306°
2026-04-14 05:44 29.85545 31.75630 32122 ft 415 kts 306°
2026-04-14 05:45 29.88964 31.70289 32127 ft 416 kts 306°
2026-04-14 05:45 29.92412 31.64925 32129 ft 416 kts 306°
2026-04-14 05:46 29.95868 31.59576 32132 ft 415 kts 306°
2026-04-14 05:46 29.99332 31.54217 32131 ft 417 kts 306°
2026-04-14 05:47 30.02792 31.48856 32131 ft 416 kts 306°
2026-04-14 05:47 30.06224 31.43528 32132 ft 415 kts 306°
2026-04-14 05:48 30.10045 31.38499 32132 ft 417 kts 314°
2026-04-14 05:48 30.14198 31.33801 32130 ft 417 kts 315°
2026-04-14 05:49 30.18383 31.29208 32128 ft 416 kts 315°
2026-04-14 05:49 30.22605 31.24618 32128 ft 417 kts 315°
2026-04-14 05:50 30.26841 31.20029 32130 ft 417 kts 315°
2026-04-14 05:50 30.31089 31.15433 32131 ft 417 kts 315°
2026-04-14 05:51 30.35306 31.10872 32132 ft 417 kts 315°
2026-04-14 05:51 30.39556 31.06274 32134 ft 417 kts 315°
2026-04-14 05:52 30.43772 31.01707 32131 ft 417 kts 315°
2026-04-14 05:52 30.48007 30.97117 32132 ft 416 kts 315°
2026-04-14 05:53 30.52247 30.92517 32135 ft 417 kts 315°
2026-04-14 05:53 30.56498 30.87902 32135 ft 418 kts 315°
2026-04-14 05:54 30.60745 30.83285 32132 ft 417 kts 315°
2026-04-14 05:54 30.64964 30.78694 32135 ft 417 kts 315°
2026-04-14 05:55 30.69210 30.74066 32138 ft 419 kts 315°
2026-04-14 05:55 30.73462 30.69426 32143 ft 418 kts 315°
2026-04-14 05:56 30.77702 30.64795 32147 ft 418 kts 315°
2026-04-14 05:56 30.81917 30.60183 32140 ft 419 kts 315°
2026-04-14 05:57 30.86176 30.55517 32140 ft 419 kts 315°
2026-04-14 05:57 30.90405 30.50878 32142 ft 418 kts 315°
2026-04-14 05:58 30.94651 30.46214 32143 ft 419 kts 315°
2026-04-14 05:58 30.98901 30.41537 32153 ft 420 kts 314°
2026-04-14 05:59 31.03125 30.36884 32148 ft 419 kts 314°
2026-04-14 05:59 31.07255 30.32099 32158 ft 416 kts 303°
2026-04-14 06:00 31.09829 30.26057 32158 ft 418 kts 291°
2026-04-14 06:00 31.11853 30.19756 32153 ft 415 kts 289°
2026-04-14 06:01 31.13719 30.13384 32147 ft 415 kts 288°
2026-04-14 06:01 31.15519 30.06958 32152 ft 417 kts 288°
2026-04-14 06:02 31.17286 30.00509 32153 ft 415 kts 288°
2026-04-14 06:02 31.18393 29.97408 32176 ft 414 kts 302°
2026-04-14 06:02 31.20254 29.94893 32194 ft 420 kts 319°
2026-04-14 06:03 31.25246 29.91167 32164 ft 428 kts 327°
2026-04-14 06:04 31.33048 29.86172 32157 ft 425 kts 328°
2026-04-14 06:04 31.38241 29.82924 32146 ft 426 kts 328°
2026-04-14 06:05 31.43480 29.79649 32152 ft 426 kts 328°
2026-04-14 06:05 31.48681 29.76392 32153 ft 425 kts 328°
2026-04-14 06:06 31.53919 29.73104 32152 ft 427 kts 328°
2026-04-14 06:06 31.59163 29.69806 32157 ft 426 kts 328°
2026-04-14 06:07 31.64346 29.66542 32157 ft 425 kts 328°
2026-04-14 06:07 31.69568 29.63246 32162 ft 427 kts 328°
2026-04-14 06:08 31.74805 29.59935 32163 ft 426 kts 328°
2026-04-14 06:08 31.80017 29.56637 32172 ft 425 kts 328°
2026-04-14 06:09 31.85242 29.53322 32177 ft 427 kts 328°
2026-04-14 06:09 31.90449 29.50016 32177 ft 426 kts 328°
2026-04-14 06:10 31.95665 29.46699 32182 ft 426 kts 328°
2026-04-14 06:10 32.00895 29.43371 32185 ft 427 kts 328°
2026-04-14 06:11 32.06105 29.40057 32184 ft 427 kts 328°
2026-04-14 06:11 32.11336 29.36725 32184 ft 426 kts 328°
2026-04-14 06:12 32.16570 29.33382 32185 ft 428 kts 328°
2026-04-14 06:12 32.21819 29.30025 32186 ft 428 kts 328°
2026-04-14 06:13 32.27055 29.26677 32189 ft 427 kts 328°
2026-04-14 06:13 32.32264 29.23341 32188 ft 428 kts 328°
2026-04-14 06:14 32.37521 29.19967 32191 ft 429 kts 328°
2026-04-14 06:14 32.42768 29.16597 32189 ft 428 kts 328°
2026-04-14 06:15 32.48004 29.13227 32192 ft 428 kts 328°
2026-04-14 06:15 32.53221 29.09864 32192 ft 429 kts 328°
2026-04-14 06:16 32.58474 29.06473 32191 ft 428 kts 328°
2026-04-14 06:16 32.63679 29.03107 32190 ft 428 kts 328°
2026-04-14 06:17 32.68916 28.99717 32192 ft 429 kts 328°
2026-04-14 06:17 32.74159 28.96318 32189 ft 429 kts 328°
2026-04-14 06:18 32.79374 28.92934 32190 ft 428 kts 328°
2026-04-14 06:18 32.84613 28.89528 32189 ft 429 kts 327°
2026-04-14 06:19 32.89828 28.86132 32188 ft 429 kts 327°
2026-04-14 06:19 32.95075 28.82712 32190 ft 429 kts 327°
2026-04-14 06:20 33.00312 28.79294 32188 ft 429 kts 327°
2026-04-14 06:20 33.05556 28.75867 32190 ft 430 kts 327°
2026-04-14 06:21 33.10780 28.72447 32187 ft 430 kts 327°
2026-04-14 06:21 33.16026 28.69011 32192 ft 429 kts 327°
2026-04-14 06:22 33.21240 28.65590 32190 ft 430 kts 327°
2026-04-14 06:22 33.26496 28.62136 32192 ft 430 kts 327°
2026-04-14 06:23 33.31701 28.58711 32191 ft 429 kts 327°
2026-04-14 06:23 33.36925 28.55268 32190 ft 429 kts 327°
2026-04-14 06:24 33.42169 28.51806 32189 ft 430 kts 327°
2026-04-14 06:24 33.47424 28.48333 32192 ft 429 kts 327°
2026-04-14 06:25 33.52626 28.44890 32190 ft 429 kts 326°
2026-04-14 06:25 33.57870 28.41412 32189 ft 430 kts 326°
2026-04-14 06:26 33.63079 28.37953 32190 ft 429 kts 326°
2026-04-14 06:26 33.68312 28.34473 32191 ft 430 kts 326°
2026-04-14 06:27 33.73560 28.30974 32195 ft 432 kts 326°
2026-04-14 06:27 33.78835 28.27506 32196 ft 432 kts 327°
2026-04-14 06:28 33.83276 28.24739 32186 ft 433 kts 328°
2026-04-14 06:28 33.88662 28.21439 32187 ft 434 kts 328°
2026-04-14 06:29 33.94035 28.18161 32185 ft 434 kts 328°
2026-04-14 06:29 33.99422 28.14876 32188 ft 434 kts 328°
2026-04-14 06:30 34.04820 28.11580 32197 ft 435 kts 328°
2026-04-14 06:30 34.10225 28.08274 32184 ft 435 kts 328°
2026-04-14 06:31 34.15589 28.04990 32192 ft 434 kts 328°
2026-04-14 06:31 34.20980 28.01684 32193 ft 435 kts 328°
2026-04-14 06:32 34.26366 27.98374 32191 ft 435 kts 328°
2026-04-14 06:32 34.31754 27.95059 32192 ft 434 kts 328°
2026-04-14 06:33 34.37149 27.91734 32189 ft 435 kts 328°
2026-04-14 06:33 34.42548 27.88401 32190 ft 435 kts 328°
2026-04-14 06:34 34.50597 27.83426 32189 ft 434 kts 328°
2026-04-14 06:34 34.55996 27.80082 32189 ft 435 kts 328°
2026-04-14 06:35 34.61391 27.76737 32191 ft 434 kts 328°
2026-04-14 06:35 34.66764 27.73403 32189 ft 434 kts 328°
2026-04-14 06:36 34.72109 27.70079 32193 ft 435 kts 328°
2026-04-14 06:36 34.77492 27.66727 32191 ft 433 kts 328°
2026-04-14 06:37 34.82867 27.63375 32195 ft 433 kts 328°
2026-04-14 06:37 34.88217 27.60032 32195 ft 434 kts 328°
2026-04-14 06:38 34.93590 27.56670 32195 ft 433 kts 327°
2026-04-14 06:38 34.98941 27.53318 32196 ft 432 kts 327°
2026-04-14 06:39 35.04265 27.49977 32195 ft 433 kts 327°
2026-04-14 06:39 35.09623 27.46610 32191 ft 432 kts 327°
2026-04-14 06:40 35.14968 27.43247 32197 ft 432 kts 327°
2026-04-14 06:40 35.20328 27.39869 32190 ft 433 kts 327°
2026-04-14 06:41 35.25657 27.36502 32179 ft 434 kts 327°
2026-04-14 06:41 35.31019 27.33113 32173 ft 433 kts 327°
2026-04-14 06:42 35.36393 27.29710 32166 ft 434 kts 327°
2026-04-14 06:42 35.41746 27.26315 32159 ft 435 kts 327°
2026-04-14 06:43 35.47131 27.22896 32159 ft 435 kts 327°
2026-04-14 06:43 35.52511 27.19475 32166 ft 436 kts 327°
2026-04-14 06:44 35.57921 27.16031 32164 ft 437 kts 327°
2026-04-14 06:44 35.63299 27.12604 32160 ft 437 kts 327°
2026-04-14 06:45 35.68728 27.09130 32186 ft 441 kts 327°
2026-04-14 06:45 35.74194 27.05632 32193 ft 442 kts 327°
2026-04-14 06:46 35.82323 27.00420 32197 ft 441 kts 327°
2026-04-14 06:47 35.87784 26.96911 32195 ft 443 kts 327°
2026-04-14 06:47 35.93225 26.93409 32197 ft 443 kts 327°
2026-04-14 06:48 35.98714 26.89873 32194 ft 442 kts 327°
2026-04-14 06:48 36.04148 26.86365 32195 ft 443 kts 327°
2026-04-14 06:49 36.09627 26.82822 32193 ft 444 kts 327°
2026-04-14 06:49 36.15067 26.79300 32190 ft 443 kts 327°
2026-04-14 06:50 36.20557 26.75740 32193 ft 444 kts 327°
2026-04-14 06:50 36.26013 26.72196 32192 ft 445 kts 327°
2026-04-14 06:51 36.31500 26.68628 32194 ft 444 kts 326°
2026-04-14 06:51 36.36952 26.65076 32202 ft 445 kts 326°
2026-04-14 06:52 36.42452 26.61486 32198 ft 445 kts 326°
2026-04-14 06:52 36.47900 26.57926 32195 ft 444 kts 326°
2026-04-14 06:53 36.53377 26.54339 32199 ft 445 kts 326°
2026-04-14 06:53 36.58865 26.50740 32197 ft 445 kts 326°
2026-04-14 06:54 36.64315 26.47160 32201 ft 444 kts 326°
2026-04-14 06:54 36.69780 26.43564 32205 ft 443 kts 326°
2026-04-14 06:55 36.75239 26.39965 32207 ft 444 kts 326°
2026-04-14 06:55 36.80670 26.36379 32207 ft 443 kts 326°
2026-04-14 06:56 36.86121 26.32773 32208 ft 442 kts 326°
2026-04-14 06:56 36.91571 26.29160 32207 ft 443 kts 326°
2026-04-14 06:57 36.97040 26.25578 32210 ft 444 kts 327°
2026-04-14 06:57 37.02561 26.22140 32210 ft 443 kts 327°
2026-04-14 06:58 37.08080 26.18756 32211 ft 444 kts 327°
2026-04-14 06:58 37.13642 26.15355 32212 ft 444 kts 327°
2026-04-14 06:59 37.19194 26.11961 32209 ft 443 kts 327°
2026-04-14 06:59 37.24713 26.08579 32212 ft 445 kts 327°
2026-04-14 07:00 37.30292 26.05150 32212 ft 446 kts 327°
2026-04-14 07:00 37.35883 26.01711 32210 ft 446 kts 327°
2026-04-14 07:01 37.41421 25.98297 32209 ft 447 kts 327°
2026-04-14 07:01 37.47017 25.94842 32206 ft 448 kts 327°
2026-04-14 07:02 37.52618 25.91379 32203 ft 447 kts 327°
2026-04-14 07:02 37.58177 25.87954 32201 ft 447 kts 328°
2026-04-14 07:03 37.63813 25.84527 32212 ft 448 kts 328°
2026-04-14 07:03 37.69442 25.81117 32207 ft 448 kts 328°
2026-04-14 07:04 37.75022 25.77736 32198 ft 447 kts 327°
2026-04-14 07:04 37.80645 25.74323 32205 ft 447 kts 327°
2026-04-14 07:05 37.86257 25.70908 32203 ft 447 kts 327°
2026-04-14 07:05 37.91820 25.67518 32193 ft 445 kts 327°
2026-04-14 07:06 37.97406 25.64105 32198 ft 446 kts 327°
2026-04-14 07:06 38.03015 25.60671 32199 ft 446 kts 327°
2026-04-14 07:07 38.08556 25.57273 32201 ft 444 kts 326°
2026-04-14 07:07 38.14128 25.53848 32200 ft 444 kts 326°
2026-04-14 07:08 38.19679 25.50428 32197 ft 445 kts 326°
2026-04-14 07:08 38.25251 25.46993 32197 ft 444 kts 326°
2026-04-14 07:09 38.30794 25.43570 32198 ft 444 kts 326°
2026-04-14 07:09 38.36371 25.40116 32195 ft 445 kts 326°
2026-04-14 07:10 38.41946 25.36661 32195 ft 444 kts 326°
2026-04-14 07:10 38.47477 25.33228 32195 ft 445 kts 326°
2026-04-14 07:11 38.53063 25.29754 32191 ft 446 kts 326°
2026-04-14 07:11 38.58647 25.26276 32193 ft 445 kts 326°
2026-04-14 07:12 38.64213 25.22804 32194 ft 444 kts 326°
2026-04-14 07:12 38.69747 25.19345 32194 ft 445 kts 326°
2026-04-14 07:13 38.75313 25.15858 32195 ft 445 kts 326°
2026-04-14 07:13 38.80878 25.12369 32194 ft 444 kts 325°
2026-04-14 07:14 38.86424 25.08883 32195 ft 444 kts 325°
2026-04-14 07:14 38.91937 25.05410 32193 ft 444 kts 325°
2026-04-14 07:15 38.97499 25.01903 32190 ft 443 kts 325°
2026-04-14 07:15 39.03011 24.98420 32196 ft 444 kts 325°
2026-04-14 07:16 39.08566 24.94902 32198 ft 444 kts 325°
2026-04-14 07:16 39.14112 24.91386 32197 ft 443 kts 325°
2026-04-14 07:17 39.19610 24.87893 32198 ft 443 kts 325°
2026-04-14 07:17 39.25153 24.84363 32195 ft 444 kts 325°
2026-04-14 07:18 39.29762 24.81425 32190 ft 443 kts 325°
2026-04-14 07:18 39.36177 24.77331 32196 ft 442 kts 325°
2026-04-14 07:19 39.40805 24.74370 32201 ft 443 kts 325°
2026-04-14 07:19 39.46339 24.70825 32196 ft 443 kts 325°
2026-04-14 07:20 39.51831 24.67303 32195 ft 442 kts 325°
2026-04-14 07:20 39.57356 24.63752 32200 ft 443 kts 325°
2026-04-14 07:21 39.62890 24.60188 32201 ft 443 kts 325°
2026-04-14 07:21 39.68387 24.56645 32205 ft 442 kts 324°
2026-04-14 07:22 39.73914 24.53072 32204 ft 443 kts 324°
2026-04-14 07:22 39.79442 24.49492 32204 ft 444 kts 324°
2026-04-14 07:23 39.84966 24.45910 32208 ft 443 kts 324°
2026-04-14 07:23 39.90451 24.42346 32209 ft 444 kts 324°
2026-04-14 07:24 39.95979 24.38746 32213 ft 444 kts 324°
2026-04-14 07:24 40.01522 24.35131 32211 ft 444 kts 324°
2026-04-14 07:25 40.07015 24.31541 32213 ft 444 kts 324°
2026-04-14 07:25 40.12559 24.27909 32210 ft 445 kts 324°
2026-04-14 07:26 40.18093 24.24280 32216 ft 444 kts 324°
2026-04-14 07:26 40.23596 24.20662 32230 ft 445 kts 324°
2026-04-14 07:27 40.29150 24.17004 32229 ft 445 kts 324°
2026-04-14 07:27 40.34650 24.13377 32215 ft 444 kts 324°
2026-04-14 07:28 40.40180 24.09724 32215 ft 446 kts 324°
2026-04-14 07:28 40.45747 24.06035 32220 ft 447 kts 324°
2026-04-14 07:29 40.51292 24.02358 32225 ft 445 kts 324°
2026-04-14 07:29 40.56803 23.98699 32227 ft 447 kts 324°
2026-04-14 07:30 40.62420 23.95086 32221 ft 449 kts 325°
2026-04-14 07:30 40.68024 23.91549 32230 ft 448 kts 325°
2026-04-14 07:31 40.73692 23.87982 32230 ft 449 kts 326°
2026-04-14 07:31 40.79310 23.84442 32230 ft 450 kts 326°
2026-04-14 07:32 40.84981 23.80864 32228 ft 449 kts 326°
2026-04-14 07:32 40.90591 23.77317 32227 ft 450 kts 325°
2026-04-14 07:33 40.96249 23.73729 32229 ft 451 kts 326°
2026-04-14 07:33 41.01911 23.70133 32233 ft 450 kts 326°
2026-04-14 07:34 41.13227 23.62924 32237 ft 452 kts 326°
2026-04-14 07:35 41.18859 23.59324 32229 ft 451 kts 326°
2026-04-14 07:35 41.24519 23.55701 32222 ft 450 kts 326°
2026-04-14 07:36 41.30144 23.52087 32217 ft 452 kts 326°
2026-04-14 07:36 41.35807 23.48442 32214 ft 451 kts 326°
2026-04-14 07:37 41.41455 23.44791 32220 ft 451 kts 326°
2026-04-14 07:37 41.47113 23.41113 32202 ft 452 kts 326°
2026-04-14 07:38 41.52737 23.37448 32207 ft 452 kts 326°
2026-04-14 07:38 41.58399 23.33748 32202 ft 453 kts 326°
2026-04-14 07:39 41.64055 23.30045 32197 ft 453 kts 326°
2026-04-14 07:39 41.69720 23.26331 32194 ft 454 kts 326°
2026-04-14 07:40 41.75416 23.22585 32189 ft 455 kts 326°
2026-04-14 07:40 41.81097 23.18841 32181 ft 454 kts 326°
2026-04-14 07:41 41.86739 23.15117 32174 ft 454 kts 326°
2026-04-14 07:41 41.92419 23.11358 32180 ft 455 kts 326°
2026-04-14 07:42 41.98105 23.07590 32167 ft 454 kts 326°
2026-04-14 07:42 42.03743 23.03849 32165 ft 454 kts 326°
2026-04-14 07:43 42.09430 23.00064 32162 ft 456 kts 326°
2026-04-14 07:43 42.15114 22.96274 32163 ft 454 kts 327°
2026-04-14 07:44 42.20784 22.92488 32159 ft 455 kts 327°
2026-04-14 07:44 42.26464 22.88683 32161 ft 456 kts 327°
2026-04-14 07:45 42.32114 22.84892 32161 ft 455 kts 327°
2026-04-14 07:45 42.37800 22.81069 32163 ft 456 kts 327°
2026-04-14 07:46 42.43454 22.77261 32139 ft 456 kts 327°
2026-04-14 07:46 42.49157 22.73411 32150 ft 458 kts 327°
2026-04-14 07:47 42.54878 22.69541 32145 ft 459 kts 327°
2026-04-14 07:47 42.60540 22.65709 32160 ft 456 kts 328°
2026-04-14 07:48 42.66239 22.61843 32161 ft 457 kts 328°
2026-04-14 07:48 42.71913 22.57982 32160 ft 458 kts 328°
2026-04-14 07:49 42.77621 22.54093 32153 ft 458 kts 328°
2026-04-14 07:49 42.83257 22.50064 32160 ft 454 kts 324°
2026-04-14 07:50 42.88578 22.45490 32149 ft 453 kts 322°
2026-04-14 07:50 42.93834 22.40755 32135 ft 452 kts 321°
2026-04-14 07:51 42.99064 22.35977 32122 ft 451 kts 321°
2026-04-14 07:51 43.04249 22.31211 32118 ft 453 kts 321°
2026-04-14 07:52 43.09487 22.26380 32129 ft 452 kts 321°
2026-04-14 07:52 43.14712 22.21546 32135 ft 452 kts 321°
2026-04-14 07:53 43.19889 22.16748 32155 ft 453 kts 321°
2026-04-14 07:53 43.25118 22.11886 32132 ft 452 kts 322°
2026-04-14 07:54 43.30334 22.07023 32140 ft 453 kts 322°
2026-04-14 07:54 43.35519 22.02176 32130 ft 453 kts 322°
2026-04-14 07:55 43.40717 21.97310 32132 ft 452 kts 322°
2026-04-14 07:55 43.45918 21.92430 32127 ft 453 kts 322°
2026-04-14 07:56 43.51127 21.87532 32127 ft 453 kts 322°
2026-04-14 07:56 43.56332 21.82629 32131 ft 452 kts 323°
2026-04-14 07:57 43.61532 21.77720 32127 ft 452 kts 323°
2026-04-14 07:57 43.66704 21.72828 32127 ft 453 kts 323°
2026-04-14 07:58 43.71904 21.67907 32122 ft 451 kts 323°
2026-04-14 07:58 43.77085 21.62994 32118 ft 452 kts 322°
2026-04-14 07:59 43.82250 21.58079 32113 ft 453 kts 322°
2026-04-14 07:59 43.87435 21.53128 32108 ft 452 kts 323°
2026-04-14 08:00 43.92619 21.48166 32107 ft 453 kts 323°
2026-04-14 08:00 43.97806 21.43188 32101 ft 453 kts 323°
2026-04-14 08:01 44.02954 21.38241 32095 ft 452 kts 323°
2026-04-14 08:01 44.08143 21.33248 32093 ft 453 kts 323°
2026-04-14 08:02 44.13333 21.28245 32081 ft 453 kts 323°
2026-04-14 08:02 44.18515 21.23239 32081 ft 452 kts 323°
2026-04-14 08:03 44.23663 21.18255 32076 ft 453 kts 323°
2026-04-14 08:03 44.28846 21.13222 32080 ft 454 kts 323°
2026-04-14 08:04 44.34031 21.08178 32072 ft 453 kts 323°
2026-04-14 08:04 44.39176 21.03162 32068 ft 454 kts 323°
2026-04-14 08:05 44.44368 20.98087 32066 ft 454 kts 323°
2026-04-14 08:05 44.49526 20.93035 32071 ft 453 kts 323°
2026-04-14 08:06 44.54669 20.87988 32057 ft 453 kts 323°
2026-04-14 08:06 44.59009 20.83722 32057 ft 454 kts 323°
2026-04-14 08:07 44.64137 20.78675 32066 ft 452 kts 323°
2026-04-14 08:07 44.69292 20.73588 32062 ft 452 kts 323°
2026-04-14 08:08 44.74447 20.68492 32062 ft 452 kts 323°
2026-04-14 08:08 44.79559 20.63426 32067 ft 451 kts 323°
2026-04-14 08:09 44.84683 20.58334 32067 ft 451 kts 323°
2026-04-14 08:09 44.89829 20.53208 32071 ft 452 kts 323°
2026-04-14 08:10 44.94971 20.48069 32075 ft 452 kts 323°
2026-04-14 08:10 45.00070 20.42962 32074 ft 452 kts 322°
2026-04-14 08:11 45.05216 20.37802 32077 ft 454 kts 322°
2026-04-14 08:11 45.10370 20.32618 32074 ft 453 kts 323°
2026-04-14 08:12 45.15502 20.27444 32078 ft 453 kts 323°
2026-04-14 08:12 45.20614 20.22275 32075 ft 455 kts 323°
2026-04-14 08:13 45.25769 20.17055 32079 ft 454 kts 323°
2026-04-14 08:13 45.30909 20.11838 32085 ft 454 kts 323°
2026-04-14 08:14 45.36059 20.06598 32083 ft 455 kts 323°
2026-04-14 08:14 45.41203 20.01354 32077 ft 455 kts 323°
2026-04-14 08:15 45.46347 19.96097 32081 ft 454 kts 323°
2026-04-14 08:15 45.51454 19.90865 32076 ft 455 kts 323°
2026-04-14 08:16 45.56602 19.85583 32065 ft 455 kts 323°
2026-04-14 08:16 45.61749 19.80288 32069 ft 455 kts 323°
2026-04-14 08:17 45.66872 19.75007 32065 ft 457 kts 323°
2026-04-14 08:17 45.72028 19.69678 32064 ft 456 kts 323°
2026-04-14 08:18 45.77162 19.64359 32064 ft 455 kts 323°
2026-04-14 08:18 45.82284 19.59040 32065 ft 457 kts 323°
2026-04-14 08:19 45.87430 19.53684 32066 ft 457 kts 323°
2026-04-14 08:19 45.92563 19.48329 32063 ft 455 kts 323°
2026-04-14 08:20 45.97698 19.42960 32059 ft 456 kts 323°
2026-04-14 08:20 46.02734 19.37501 32063 ft 454 kts 316°
2026-04-14 08:21 46.07177 19.31034 32065 ft 454 kts 311°
2026-04-14 08:21 46.11440 19.24300 32059 ft 455 kts 311°
2026-04-14 08:22 46.15662 19.17482 32056 ft 454 kts 310°
2026-04-14 08:22 46.19846 19.10660 32059 ft 454 kts 310°
2026-04-14 08:23 46.23998 19.03847 32060 ft 454 kts 310°
2026-04-14 08:23 46.28167 18.96979 32057 ft 453 kts 310°
2026-04-14 08:24 46.32324 18.90105 32057 ft 453 kts 310°
2026-04-14 08:24 46.36457 18.83249 32052 ft 454 kts 310°
2026-04-14 08:25 46.40613 18.76332 32051 ft 455 kts 310°
2026-04-14 08:25 46.44741 18.69443 32049 ft 454 kts 309°
2026-04-14 08:26 46.48891 18.62501 32051 ft 455 kts 309°
2026-04-14 08:26 46.53039 18.55540 32049 ft 455 kts 309°
2026-04-14 08:27 46.57159 18.48605 32048 ft 455 kts 309°
2026-04-14 08:27 46.61301 18.41619 32048 ft 455 kts 309°
2026-04-14 08:28 46.65447 18.34608 32047 ft 456 kts 309°
2026-04-14 08:28 46.69559 18.27636 32047 ft 456 kts 309°
2026-04-14 08:29 46.73697 18.20598 32044 ft 456 kts 309°
2026-04-14 08:29 46.77835 18.13545 32044 ft 457 kts 309°
2026-04-14 08:30 46.81967 18.06484 32051 ft 457 kts 309°
2026-04-14 08:30 46.86065 17.99460 32049 ft 457 kts 309°
2026-04-14 08:31 46.90189 17.92375 32048 ft 456 kts 309°
2026-04-14 08:31 46.96368 17.81724 32050 ft 458 kts 309°
2026-04-14 08:32 47.00467 17.74638 32048 ft 458 kts 309°
2026-04-14 08:32 47.04584 17.67505 32049 ft 458 kts 308°
2026-04-14 08:33 47.08684 17.60376 32053 ft 459 kts 308°
2026-04-14 08:33 47.12787 17.53219 32059 ft 458 kts 308°
2026-04-14 08:34 47.16886 17.46048 32065 ft 457 kts 308°
2026-04-14 08:34 47.20982 17.38864 32068 ft 457 kts 308°
2026-04-14 08:35 47.25034 17.31738 32067 ft 457 kts 308°
2026-04-14 08:35 47.29120 17.24542 32062 ft 456 kts 308°
2026-04-14 08:36 47.33196 17.17346 32060 ft 457 kts 308°
2026-04-14 08:36 47.37246 17.10174 32060 ft 457 kts 308°
2026-04-14 08:37 47.41311 17.02957 32061 ft 456 kts 308°
2026-04-14 08:37 47.45369 16.95729 32062 ft 457 kts 308°
2026-04-14 08:38 47.49430 16.88477 32062 ft 457 kts 308°
2026-04-14 08:38 47.53453 16.81266 32076 ft 456 kts 308°
2026-04-14 08:39 47.57581 16.74060 32067 ft 457 kts 309°
2026-04-14 08:39 47.61752 16.67000 32066 ft 457 kts 309°
2026-04-14 08:40 47.65958 16.59918 32073 ft 457 kts 309°
2026-04-14 08:40 47.70159 16.52842 32073 ft 457 kts 309°
2026-04-14 08:41 47.74366 16.45736 32072 ft 458 kts 309°
2026-04-14 08:41 47.78565 16.38625 32073 ft 457 kts 309°
2026-04-14 08:42 47.82755 16.31509 32076 ft 457 kts 309°
2026-04-14 08:42 47.86924 16.24411 32076 ft 458 kts 309°
2026-04-14 08:43 47.91116 16.17251 32083 ft 458 kts 309°
2026-04-14 08:43 47.95298 16.10093 32081 ft 457 kts 309°
2026-04-14 08:44 47.99472 16.02925 32077 ft 457 kts 309°
2026-04-14 08:44 48.03624 15.95775 32076 ft 458 kts 309°
2026-04-14 08:45 48.07796 15.88574 32083 ft 457 kts 309°
2026-04-14 08:45 48.11961 15.81362 32085 ft 457 kts 308°
2026-04-14 08:46 48.16098 15.74182 32085 ft 458 kts 308°
2026-04-14 08:46 48.20266 15.66927 32092 ft 458 kts 308°
2026-04-14 08:47 48.24422 15.59674 32099 ft 458 kts 308°
2026-04-14 08:47 48.28556 15.52440 32103 ft 458 kts 308°
2026-04-14 08:48 48.32704 15.45160 32095 ft 458 kts 308°
2026-04-14 08:48 48.36847 15.37869 32092 ft 458 kts 308°
2026-04-14 08:49 48.40963 15.30603 32098 ft 459 kts 308°
2026-04-14 08:49 48.45110 15.23265 32094 ft 458 kts 308°
2026-04-14 08:50 48.49213 15.15987 32087 ft 457 kts 308°
2026-04-14 08:50 48.53341 15.08641 32086 ft 459 kts 308°
2026-04-14 08:51 48.57469 15.01275 32087 ft 459 kts 308°
2026-04-14 08:51 48.61586 14.93910 32081 ft 457 kts 307°
2026-04-14 08:52 48.65660 14.86597 32073 ft 458 kts 307°
2026-04-14 08:52 48.69768 14.79204 32071 ft 459 kts 307°
2026-04-14 08:53 48.73869 14.71803 32070 ft 458 kts 307°
2026-04-14 08:53 48.77266 14.65659 32071 ft 457 kts 307°
2026-04-14 08:54 48.81357 14.58238 32067 ft 458 kts 307°
2026-04-14 08:54 48.85429 14.50830 32062 ft 457 kts 307°
2026-04-14 08:55 48.89498 14.43403 32060 ft 457 kts 307°
2026-04-14 08:55 48.93687 14.36108 32068 ft 461 kts 315°
2026-04-14 08:56 48.98673 14.29935 32060 ft 463 kts 320°
2026-04-14 08:56 49.03856 14.24085 32059 ft 463 kts 321°
2026-04-14 08:57 49.09055 14.18353 32061 ft 464 kts 322°
2026-04-14 08:57 49.14311 14.12600 32054 ft 464 kts 322°
2026-04-14 08:58 49.19564 14.06855 32056 ft 464 kts 322°
2026-04-14 08:58 49.24799 14.01119 32057 ft 465 kts 322°
2026-04-14 08:59 49.30075 13.95323 32066 ft 465 kts 321°
2026-04-14 08:59 49.35336 13.89527 32058 ft 464 kts 321°
2026-04-14 09:00 49.40466 13.83523 32073 ft 461 kts 313°
2026-04-14 09:00 49.44803 13.76343 32075 ft 461 kts 308°
2026-04-14 09:01 49.48957 13.68848 32063 ft 458 kts 307°
2026-04-14 09:01 49.53039 13.61299 32066 ft 459 kts 307°
2026-04-14 09:02 49.57074 13.53747 32069 ft 459 kts 306°
2026-04-14 09:02 49.61118 13.46126 32070 ft 458 kts 306°
2026-04-14 09:03 49.65150 13.38488 32077 ft 459 kts 306°
2026-04-14 09:03 49.69165 13.30850 32075 ft 460 kts 306°
2026-04-14 09:04 49.73191 13.23168 32075 ft 459 kts 306°
2026-04-14 09:04 49.77206 13.15476 32078 ft 460 kts 306°
2026-04-14 09:05 49.81204 13.07792 32076 ft 459 kts 306°
2026-04-14 09:05 49.85208 13.00071 32076 ft 459 kts 306°
2026-04-14 09:06 49.89201 12.92347 32072 ft 460 kts 306°
2026-04-14 09:06 49.93209 12.84570 32072 ft 460 kts 306°
2026-04-14 09:07 49.97173 12.76859 32075 ft 459 kts 306°
2026-04-14 09:07 50.01159 12.69080 32075 ft 460 kts 306°
2026-04-14 09:08 50.05127 12.61312 32073 ft 459 kts 306°
2026-04-14 09:08 50.09106 12.53502 32077 ft 459 kts 306°
2026-04-14 09:09 50.13075 12.45687 32081 ft 460 kts 306°
2026-04-14 09:09 50.16988 12.37885 32083 ft 458 kts 301°
2026-04-14 09:10 50.19863 12.29097 32093 ft 454 kts 291°
2026-04-14 09:10 50.22219 12.19926 32097 ft 454 kts 289°
2026-04-14 09:11 50.24407 12.10652 32101 ft 453 kts 288°
2026-04-14 09:11 50.26514 12.01434 32113 ft 453 kts 288°
2026-04-14 09:12 50.28631 11.92157 32104 ft 452 kts 288°
2026-04-14 09:12 50.30745 11.82881 32103 ft 453 kts 287°
2026-04-14 09:13 50.32858 11.73592 32100 ft 452 kts 287°
2026-04-14 09:13 50.34944 11.64391 32098 ft 451 kts 287°
2026-04-14 09:14 50.37037 11.55126 32104 ft 451 kts 287°
2026-04-14 09:14 50.37972 11.50977 32113 ft 451 kts 287°
2026-04-14 09:15 50.39578 11.43824 32120 ft 449 kts 287°
2026-04-14 09:15 50.41647 11.34587 32114 ft 447 kts 287°
2026-04-14 09:16 50.43689 11.25403 32114 ft 449 kts 287°
2026-04-14 09:16 50.45739 11.16136 32125 ft 448 kts 287°
2026-04-14 09:17 50.47771 11.06914 32124 ft 446 kts 287°
2026-04-14 09:17 50.49796 10.97679 32132 ft 447 kts 287°
2026-04-14 09:18 50.51815 10.88438 32137 ft 446 kts 287°
2026-04-14 09:18 50.53840 10.79299 32136 ft 445 kts 288°
2026-04-14 09:19 50.55912 10.70095 32136 ft 446 kts 288°
2026-04-14 09:19 50.57984 10.60941 32132 ft 445 kts 288°
2026-04-14 09:20 50.60061 10.51767 32138 ft 443 kts 288°
2026-04-14 09:20 50.62131 10.42588 31988 ft 447 kts 288°
2026-04-14 09:21 50.63166 10.37986 31472 ft 450 kts 288°
2026-04-14 09:21 50.64189 10.33369 30969 ft 443 kts 284°
2026-04-14 09:21 50.64642 10.28646 30496 ft 432 kts 266°
2026-04-14 09:21 50.64155 10.24037 30008 ft 426 kts 249°
2026-04-14 09:22 50.62943 10.19804 29442 ft 423 kts 241°
2026-04-14 09:22 50.61530 10.15764 28878 ft 418 kts 239°
2026-04-14 09:22 50.60106 10.11868 28326 ft 411 kts 239°
2026-04-14 09:22 50.58706 10.07990 27773 ft 402 kts 240°
2026-04-14 09:23 50.57336 10.04173 27129 ft 397 kts 240°
2026-04-14 09:23 50.55992 10.00416 26500 ft 392 kts 240°
2026-04-14 09:23 50.54663 9.96698 25901 ft 387 kts 240°
2026-04-14 09:23 50.53367 9.93072 25302 ft 382 kts 240°
2026-04-14 09:24 50.52069 9.89442 24726 ft 378 kts 240°
2026-04-14 09:24 50.50783 9.85849 24145 ft 374 kts 240°
2026-04-14 09:24 50.49512 9.82304 23565 ft 370 kts 240°
2026-04-14 09:24 50.48254 9.78795 22895 ft 367 kts 240°
2026-04-14 09:25 50.47007 9.75318 22240 ft 363 kts 240°
2026-04-14 09:25 50.45767 9.71864 21601 ft 360 kts 240°
2026-04-14 09:25 50.44558 9.68502 20985 ft 357 kts 240°
2026-04-14 09:25 50.43341 9.65124 20374 ft 354 kts 240°
2026-04-14 09:26 50.42133 9.61778 19779 ft 351 kts 239°
2026-04-14 09:26 50.40932 9.58461 19192 ft 348 kts 239°
2026-04-14 09:26 50.39740 9.55174 18618 ft 345 kts 239°
2026-04-14 09:26 50.38553 9.51907 17988 ft 342 kts 239°
2026-04-14 09:27 50.37380 9.48685 17346 ft 340 kts 239°
2026-04-14 09:27 50.36223 9.45512 16819 ft 335 kts 239°
2026-04-14 09:27 50.35083 9.42385 16435 ft 326 kts 239°
2026-04-14 09:27 50.34030 9.39302 16274 ft 320 kts 250°
2026-04-14 09:28 50.33672 9.35820 16222 ft 331 kts 273°
2026-04-14 09:28 50.34253 9.32315 16212 ft 336 kts 292°
2026-04-14 09:28 50.34990 9.28869 16191 ft 332 kts 274°
2026-04-14 09:28 50.34822 9.25296 16193 ft 331 kts 253°
2026-04-14 09:29 50.33982 9.21996 16176 ft 331 kts 241°
2026-04-14 09:29 50.32757 9.18974 16162 ft 329 kts 232°
2026-04-14 09:29 50.31255 9.16257 16161 ft 329 kts 225°
2026-04-14 09:29 50.29672 9.13668 16158 ft 330 kts 232°
2026-04-14 09:30 50.28377 9.10684 16158 ft 330 kts 238°
2026-04-14 09:30 50.27241 9.07559 16153 ft 329 kts 242°
2026-04-14 09:30 50.26211 9.04409 16155 ft 329 kts 243°
2026-04-14 09:30 50.25232 9.01162 16155 ft 330 kts 245°
2026-04-14 09:31 50.24305 8.97879 16157 ft 330 kts 246°
2026-04-14 09:31 50.23416 8.94579 16148 ft 329 kts 247°
2026-04-14 09:31 50.22554 8.91252 16161 ft 330 kts 248°
2026-04-14 09:31 50.21713 8.87916 16166 ft 330 kts 248°
2026-04-14 09:32 50.20885 8.84559 16170 ft 330 kts 248°
2026-04-14 09:32 50.20069 8.81204 16173 ft 330 kts 249°
2026-04-14 09:32 50.18454 8.75377 16175 ft 316 kts 238°
2026-04-14 09:33 50.18187 8.74734 16173 ft 311 kts 233°
2026-04-14 09:33 50.16690 8.72391 15731 ft 305 kts 217°
2026-04-14 09:34 50.14975 8.70485 15294 ft 301 kts 215°
2026-04-14 09:34 50.13245 8.68664 14828 ft 298 kts 214°
2026-04-14 09:34 50.11529 8.66872 14374 ft 295 kts 215°
2026-04-14 09:34 50.09839 8.65086 13987 ft 290 kts 215°
2026-04-14 09:35 50.08215 8.63337 13559 ft 286 kts 216°
2026-04-14 09:35 50.06601 8.61560 13137 ft 281 kts 216°
2026-04-14 09:35 50.05033 8.59804 12744 ft 275 kts 215°
2026-04-14 09:35 50.03307 8.58633 12358 ft 271 kts 190°
2026-04-14 09:36 50.01435 8.58381 11953 ft 268 kts 184°
2026-04-14 09:36 49.99608 8.58329 11565 ft 267 kts 181°
2026-04-14 09:36 49.97715 8.58349 11247 ft 269 kts 179°
2026-04-14 09:36 49.95848 8.58721 10871 ft 271 kts 165°
2026-04-14 09:37 49.94153 8.59947 10628 ft 270 kts 149°
2026-04-14 09:37 49.92608 8.61567 10370 ft 272 kts 147°
2026-04-14 09:37 49.91018 8.63104 10104 ft 269 kts 154°
2026-04-14 09:37 49.89296 8.64193 9818 ft 266 kts 168°
2026-04-14 09:38 49.87466 8.64631 9520 ft 265 kts 181°
2026-04-14 09:38 49.85632 8.64372 9249 ft 264 kts 194°
2026-04-14 09:38 49.83892 8.63502 8965 ft 262 kts 207°
2026-04-14 09:38 49.82840 8.62592 8775 ft 261 kts 215°
2026-04-14 09:39 49.81439 8.60818 8494 ft 259 kts 229°
2026-04-14 09:39 49.80058 8.57824 8132 ft 257 kts 250°
2026-04-14 09:39 49.79712 8.56040 7968 ft 255 kts 260°
2026-04-14 09:39 49.79368 8.52443 7659 ft 255 kts 266°
2026-04-14 09:40 49.79265 8.50625 7525 ft 255 kts 268°
2026-04-14 09:40 49.79163 8.47891 7322 ft 254 kts 269°
2026-04-14 09:40 49.79105 8.45152 7129 ft 254 kts 270°
2026-04-14 09:40 49.79073 8.42426 6920 ft 253 kts 271°
2026-04-14 09:41 49.79058 8.39694 6713 ft 253 kts 271°
2026-04-14 09:41 49.79051 8.37004 6510 ft 252 kts 272°
2026-04-14 09:41 49.79049 8.34300 6321 ft 250 kts 272°
2026-04-14 09:41 49.79048 8.31608 6236 ft 250 kts 272°
2026-04-14 09:42 49.79048 8.28912 6207 ft 250 kts 272°
2026-04-14 09:42 49.79047 8.26222 6193 ft 251 kts 272°
2026-04-14 09:42 49.79045 8.23520 6183 ft 251 kts 272°
2026-04-14 09:42 49.79040 8.20845 6181 ft 251 kts 272°
2026-04-14 09:43 49.79056 8.18153 6172 ft 250 kts 280°
2026-04-14 09:43 49.79659 8.15689 6207 ft 247 kts 311°
2026-04-14 09:43 49.80951 8.13948 6203 ft 245 kts 328°
2026-04-14 09:43 49.82418 8.12633 6187 ft 243 kts 334°
2026-04-14 09:44 49.83936 8.11531 6182 ft 244 kts 338°
2026-04-14 09:44 49.85520 8.10614 6182 ft 241 kts 352°
2026-04-14 09:44 49.87187 8.10809 6207 ft 244 kts 18°
2026-04-14 09:44 49.88759 8.11870 6016 ft 247 kts 27°
2026-04-14 09:45 49.90220 8.13226 5734 ft 243 kts 33°
2026-04-14 09:45 49.91584 8.14729 5457 ft 238 kts 36°
2026-04-14 09:45 49.92811 8.16284 5362 ft 222 kts 44°
2026-04-14 09:45 49.93786 8.18054 5192 ft 210 kts 53°
2026-04-14 09:46 49.94537 8.19924 5053 ft 195 kts 59°
2026-04-14 09:46 49.95138 8.21806 4763 ft 193 kts 63°
2026-04-14 09:46 49.95651 8.23729 4442 ft 192 kts 66°
2026-04-14 09:46 49.96120 8.25667 4121 ft 191 kts 67°
2026-04-14 09:47 49.96571 8.27601 3797 ft 189 kts 67°
2026-04-14 09:47 49.97008 8.29491 3471 ft 188 kts 67°
2026-04-14 09:47 49.97454 8.31389 3208 ft 183 kts 67°
2026-04-14 09:47 49.97893 8.33235 2840 ft 184 kts 67°
2026-04-14 09:48 49.98348 8.35112 2388 ft 186 kts 67°
2026-04-14 09:48 49.98787 8.36926 2210 ft 172 kts 67°
2026-04-14 09:48 49.99195 8.38610 2096 ft 161 kts 66°
2026-04-14 09:48 49.99591 8.40226 2044 ft 158 kts 66°
2026-04-14 09:49 49.99949 8.41741 1950 ft 150 kts 68°
2026-04-14 09:49 50.00290 8.43316 1712 ft 152 kts 69°
2026-04-14 09:49 50.00615 8.44856 1434 ft 149 kts 68°
2026-04-14 09:49 50.00973 8.46357 1229 ft 146 kts 65°
2026-04-14 09:50 50.01341 8.47838 1094 ft 146 kts 66°
2026-04-14 09:50 50.01708 8.49296 935 ft 143 kts 65°
2026-04-14 09:50 50.02080 8.50687 747 ft 141 kts 66°
2026-04-14 09:50 50.02418 8.52072 566 ft 141 kts 68°
2026-04-14 09:51 50.02760 8.53469 409 ft 136 kts 67°
2026-04-14 09:51 50.03056 8.54700 352 ft 122 kts 68°
2026-04-14 09:51 50.03263 8.55555 353 ft 59 kts 70°
2026-04-14 09:51 50.03350 8.55915 354 ft 15 kts 68°
2026-04-14 09:52 50.03382 8.56041 357 ft 17 kts 68°
2026-04-14 09:52 50.03441 8.56235 357 ft 22 kts 57°
2026-04-14 09:52 50.03558 8.56397 355 ft 20 kts 40°
2026-04-14 09:52 50.03624 8.56483 355 ft 0 kts 39°
2026-04-14 09:56 50.03628 8.56487 354 ft 2 kts 39°
2026-04-14 09:57 50.03654 8.56522 353 ft 11 kts 39°
2026-04-14 09:57 50.03746 8.56628 352 ft 20 kts 27°
2026-04-14 09:57 50.03915 8.56690 360 ft 30 kts 12°
2026-04-14 09:57 50.04132 8.56758 359 ft 37 kts 11°
2026-04-14 09:58 50.04406 8.56846 355 ft 41 kts 10°
2026-04-14 09:58 50.04625 8.56914 352 ft 18 kts 13°
2026-04-14 09:58 50.04655 8.56995 354 ft 6 kts 99°
2026-04-14 09:58 50.04652 8.57054 350 ft 5 kts 91°
2026-04-14 09:59 50.04652 8.57060 350 ft 0 kts 87°